Weather History for Lihue, HI

Change the Weather History Date:

Tuesday, April 2, 2013

  Actual Average Record
Temperature  
Mean Temperature 68 °F 74 °F  
Max Temperature 75 °F 79 °F 83 °F (1978)
Min Temperature 60 °F 68 °F 58 °F (2002)
Degree Days  
Heating Degree Days 0 0  
Month to date heating degree days 0 0  
Since 1 July heating degree days 0 0  
Cooling Degree Days 3 9  
Month to date cooling degree days 5 17  
Year to date cooling degree days 545 651  
Growing Degree Days 16 (Base 50)    
Moisture  
Dew Point 55 °F    
Average Humidity 64    
Maximum Humidity 78    
Minimum Humidity 49    
Precipitation  
Precipitation 0.00 in 0.11 in 0.95 in (1972)
Month to date precipitation 0.00 0.21  
Year to date precipitation 11.17 11.73  
Snow  
Snow 0.00 in - - ()
Month to date snowfall 0.0  
Since 1 July snowfall 0.0  
Snow Depth 0.00 in    
Sea Level Pressure  
Sea Level Pressure 30.05 in    
Wind  
Wind Speed 10 mph (NNW)    
Max Wind Speed 23 mph    
Max Gust Speed 29 mph    
Visibility 10 miles    
Events      
T = Trace of Precipitation, MM = Missing Value Source: NWS Daily Summary

Daily Weather History Graph

Daily Weather History Graph

Search for Another Location

Airport:

Trip Planner

Search our weather history database for the weather conditions in past years. The results will help you decide how hot, cold, wet, or windy it might be!

Date:

Astronomy

Apr. 02, 2013 Rise Set
Actual Time 6:28 AM HST 6:52 PM HST
Civil Twilight 6:06 AM HST 7:15 PM HST
Nautical Twilight 5:40 AM HST 7:41 PM HST
Astronomical Twilight 5:13 AM HST 8:08 PM HST
Moon 12:39 AM HST (4/2) 11:59 AM HST (4/2)
Length of Visible Light 13h 09m
Length of Day
12h 24m
Waning Gibbous, 53% of the Moon is Illuminated
Apr 2
Waning Gibbous
Apr 2
Last Quarter
Apr 9
New
Apr 18
First Quarter
Apr 25
Full

Hourly Weather History & Observations

Time (HST) Temp. Dew Point Humidity Pressure Visibility Wind Dir Wind Speed Gust Speed Precip Events Conditions
12:53 AM 66.0 °F 53.1 °F 63% 30.03 in 10.0 mi North 6.9 mph - N/A   Overcast
1:53 AM 64.9 °F 53.1 °F 65% 30.01 in 10.0 mi Calm Calm - N/A   Overcast
2:53 AM 63.0 °F 53.1 °F 70% 30.01 in 10.0 mi WNW 3.5 mph - N/A   Clear
3:53 AM 63.0 °F 53.1 °F 70% 30.01 in 10.0 mi West 6.9 mph - N/A   Overcast
4:53 AM 62.1 °F 55.0 °F 78% 30.01 in 10.0 mi WNW 4.6 mph - N/A   Overcast
5:53 AM 61.0 °F 54.0 °F 78% 30.02 in 10.0 mi West 5.8 mph - N/A   Partly Cloudy
6:53 AM 62.1 °F 55.0 °F 78% 30.04 in 10.0 mi West 3.5 mph - N/A   Overcast
7:53 AM 66.0 °F 55.9 °F 70% 30.06 in 10.0 mi WNW 3.5 mph - N/A   Overcast
8:53 AM 71.1 °F 55.9 °F 59% 30.07 in 10.0 mi North 8.1 mph - N/A   Mostly Cloudy
9:53 AM 72.0 °F 55.0 °F 55% 30.09 in 10.0 mi North 11.5 mph - N/A   Mostly Cloudy
10:53 AM 73.9 °F 55.9 °F 53% 30.09 in 10.0 mi NNE 15.0 mph - N/A   Mostly Cloudy
11:53 AM 73.9 °F 55.9 °F 53% 30.06 in 10.0 mi NNE 21.9 mph 26.5 mph N/A   Clear
12:53 PM 73.9 °F 55.0 °F 52% 30.05 in 10.0 mi NE 20.7 mph - N/A   Partly Cloudy
1:53 PM 73.9 °F 55.0 °F 52% 30.04 in 10.0 mi NE 20.7 mph - N/A   Partly Cloudy
2:53 PM 73.9 °F 54.0 °F 50% 30.03 in 10.0 mi NE 17.3 mph - N/A   Partly Cloudy
3:53 PM 73.0 °F 53.1 °F 49% 30.03 in 10.0 mi NE 17.3 mph - N/A   Partly Cloudy
4:53 PM 71.1 °F 53.1 °F 53% 30.03 in 10.0 mi NNE 13.8 mph - N/A   Overcast
5:53 PM 69.1 °F 53.1 °F 57% 30.05 in 10.0 mi NNE 13.8 mph - N/A   Mostly Cloudy
6:53 PM 68.0 °F 54.0 °F 61% 30.06 in 10.0 mi NNE 11.5 mph - N/A   Scattered Clouds
7:53 PM 66.0 °F 55.0 °F 68% 30.08 in 10.0 mi North 9.2 mph - N/A   Partly Cloudy
8:53 PM 64.9 °F 55.0 °F 70% 30.10 in 10.0 mi NNW 4.6 mph - N/A   Clear
9:53 PM 63.0 °F 55.0 °F 75% 30.12 in 10.0 mi WNW 5.8 mph - N/A   Partly Cloudy
10:53 PM 63.0 °F 55.9 °F 78% 30.12 in 10.0 mi WNW 5.8 mph - N/A   Mostly Cloudy
11:53 PM 63.0 °F 55.9 °F 78% 30.10 in 10.0 mi NW 4.6 mph - N/A   Partly Cloudy